Time,TemperatureF,DewpointF,PressureIn,WindDirection,WindDirectionDegrees,WindSpeedMPH,WindSpeedGustMPH,Humidity,HourlyPrecipIn,Conditions,Clouds,dailyrainin,SolarRadiationWatts/m^2,SoftwareType,DateUTC
2013-07-18 00:02:00,73.0,71.0,-100.00,NE,42,0.0,2.0,92,0.00,,,0.05,0.000000,,2013-07-18 04:02:00,
2013-07-18 00:11:00,72.0,70.0,-100.00,NE,41,0.0,0.0,94,0.00,,,0.05,0.000000,,2013-07-18 04:11:00,
2013-07-18 00:43:00,72.0,70.0,-100.00,NE,41,0.0,0.0,94,0.00,,,0.05,0.000000,,2013-07-18 04:43:00,
2013-07-18 00:52:00,72.0,70.0,-100.00,NE,41,0.0,0.0,94,0.00,,,0.05,0.000000,,2013-07-18 04:52:00,
2013-07-18 01:02:00,72.0,70.0,-100.00,NE,41,0.0,0.0,94,0.00,,,0.05,0.000000,,2013-07-18 05:02:00,
2013-07-18 01:11:00,72.0,70.0,-100.00,ENE,62,0.0,3.0,95,0.00,,,-99.99,0.000000,,2013-07-18 05:11:00,
2013-07-18 01:42:00,72.0,70.0,-100.00,ENE,62,0.0,3.0,95,0.00,,,-99.99,0.000000,,2013-07-18 05:42:00,
2013-07-18 01:52:00,72.0,70.0,-100.00,ENE,62,0.0,3.0,95,0.00,,,-99.99,0.000000,,2013-07-18 05:52:00,
2013-07-18 02:01:00,72.0,70.0,-100.00,ENE,62,0.0,3.0,95,0.00,,,-99.99,0.000000,,2013-07-18 06:01:00,
2013-07-18 02:11:00,72.0,70.0,-100.00,SSE,154,0.0,2.0,95,0.00,,,0.05,0.000000,,2013-07-18 06:11:00,
2013-07-18 02:32:00,72.0,70.0,-100.00,SSE,154,0.0,2.0,95,0.00,,,0.05,0.000000,,2013-07-18 06:32:00,
2013-07-18 02:43:00,72.0,70.0,-100.00,SSE,154,0.0,2.0,95,0.00,,,0.05,0.000000,,2013-07-18 06:43:00,
2013-07-18 02:52:00,72.0,70.0,-100.00,SSE,154,0.0,2.0,95,0.00,,,0.05,0.000000,,2013-07-18 06:52:00,
2013-07-18 03:01:00,72.0,70.0,-100.00,SSE,154,0.0,2.0,95,0.00,,,0.05,0.000000,,2013-07-18 07:01:00,
2013-07-18 07:11:00,73.0,72.0,-100.00,ENE,62,1.0,3.0,96,-99.99,,,0.02,8.000000,,2013-07-18 11:11:00,
2013-07-18 07:43:00,73.0,72.0,-100.00,ENE,62,1.0,3.0,96,-99.99,,,0.02,8.000000,,2013-07-18 11:43:00,
2013-07-18 07:52:00,73.0,72.0,-100.00,ENE,62,1.0,3.0,96,-99.99,,,0.02,8.000000,,2013-07-18 11:52:00,
2013-07-18 08:02:00,73.0,72.0,-100.00,ENE,62,1.0,3.0,96,-99.99,,,0.02,8.000000,,2013-07-18 12:02:00,
2013-07-18 08:11:00,75.0,74.0,-100.00,ENE,61,2.0,4.0,96,0.00,,,0.01,79.000000,,2013-07-18 12:11:00,
2013-07-18 08:42:00,75.0,74.0,-100.00,ENE,61,2.0,4.0,96,0.00,,,0.01,79.000000,,2013-07-18 12:42:00,
2013-07-18 08:52:00,75.0,74.0,-100.00,ENE,61,2.0,4.0,96,0.00,,,0.01,79.000000,,2013-07-18 12:52:00,
2013-07-18 09:01:00,75.0,74.0,-100.00,ENE,61,2.0,4.0,96,0.00,,,0.01,79.000000,,2013-07-18 13:01:00,
2013-07-18 09:11:00,79.0,75.0,-100.00,ENE,61,3.0,5.0,87,0.00,,,0.00,166.000000,,2013-07-18 13:11:00,
2013-07-18 09:43:00,79.0,75.0,-100.00,ENE,61,3.0,5.0,87,0.00,,,0.00,166.000000,,2013-07-18 13:43:00,
2013-07-18 09:53:00,79.0,75.0,-100.00,ENE,61,3.0,5.0,87,0.00,,,0.00,166.000000,,2013-07-18 13:53:00,
2013-07-18 10:02:00,79.0,75.0,-100.00,ENE,61,3.0,5.0,87,0.00,,,0.00,166.000000,,2013-07-18 14:02:00,
2013-07-18 10:11:00,81.0,75.0,-100.00,ENE,77,3.0,9.0,81,0.00,,,0.00,247.000000,,2013-07-18 14:11:00,
2013-07-18 10:43:00,81.0,75.0,-100.00,ENE,77,3.0,9.0,81,0.00,,,0.00,247.000000,,2013-07-18 14:43:00,
2013-07-18 10:53:00,81.0,75.0,-100.00,ENE,77,3.0,9.0,81,0.00,,,0.00,247.000000,,2013-07-18 14:53:00,
2013-07-18 11:01:00,81.0,75.0,-100.00,ENE,77,3.0,9.0,81,0.00,,,0.00,247.000000,,2013-07-18 15:01:00,
2013-07-18 11:11:00,84.0,75.0,-100.00,ENE,64,4.0,9.0,74,0.00,,,0.00,398.000000,,2013-07-18 15:11:00,
2013-07-18 11:43:00,84.0,75.0,-100.00,ENE,64,4.0,9.0,74,0.00,,,0.00,398.000000,,2013-07-18 15:43:00,
2013-07-18 11:53:00,84.0,75.0,-100.00,ENE,64,4.0,9.0,74,0.00,,,0.00,398.000000,,2013-07-18 15:53:00,
2013-07-18 12:01:00,84.0,75.0,-100.00,ENE,64,4.0,9.0,74,0.00,,,0.00,398.000000,,2013-07-18 16:01:00,
2013-07-18 12:11:00,81.0,75.0,-100.00,SSW,205,1.0,7.0,82,0.00,,,-99.99,230.000000,,2013-07-18 16:11:00,
2013-07-18 12:42:00,81.0,75.0,-100.00,SSW,205,1.0,7.0,82,0.00,,,-99.99,230.000000,,2013-07-18 16:42:00,
2013-07-18 12:52:00,81.0,75.0,-100.00,SSW,205,1.0,7.0,82,0.00,,,-99.99,230.000000,,2013-07-18 16:52:00,
2013-07-18 13:02:00,81.0,75.0,-100.00,SSW,205,1.0,7.0,82,0.00,,,-99.99,230.000000,,2013-07-18 17:02:00,
2013-07-18 13:11:00,73.0,71.0,-100.00,ENE,78,3.0,13.0,94,1.09,,,1.09,43.000000,,2013-07-18 17:11:00,
2013-07-18 13:43:00,73.0,71.0,-100.00,ENE,78,3.0,13.0,94,1.09,,,1.09,43.000000,,2013-07-18 17:43:00,
2013-07-18 13:52:00,73.0,71.0,-100.00,ENE,78,3.0,13.0,94,1.09,,,1.09,43.000000,,2013-07-18 17:52:00,
2013-07-18 14:01:00,73.0,71.0,-100.00,ENE,78,3.0,13.0,94,1.09,,,1.09,43.000000,,2013-07-18 18:01:00,
2013-07-18 14:11:00,70.0,68.0,-100.00,SW,226,5.0,16.0,94,1.07,,,2.16,9.000000,,2013-07-18 18:11:00,
2013-07-18 14:43:00,70.0,68.0,-100.00,SW,226,5.0,16.0,94,1.07,,,2.16,9.000000,,2013-07-18 18:43:00,
2013-07-18 14:52:00,70.0,68.0,-100.00,SW,226,5.0,16.0,94,1.07,,,2.16,9.000000,,2013-07-18 18:52:00,
2013-07-18 15:02:00,70.0,68.0,-100.00,SW,226,5.0,16.0,94,1.07,,,2.16,9.000000,,2013-07-18 19:02:00,
2013-07-18 15:11:00,70.0,68.0,-100.00,South,174,3.0,5.0,95,0.30,,,2.46,11.000000,,2013-07-18 19:11:00,
2013-07-18 15:43:00,70.0,68.0,-100.00,South,174,3.0,5.0,95,0.30,,,2.46,11.000000,,2013-07-18 19:43:00,
2013-07-18 15:53:00,70.0,68.0,-100.00,South,174,3.0,5.0,95,0.30,,,2.46,11.000000,,2013-07-18 19:53:00,
2013-07-18 16:02:00,70.0,68.0,-100.00,South,174,3.0,5.0,95,0.30,,,2.46,11.000000,,2013-07-18 20:02:00,
2013-07-18 16:11:00,71.0,70.0,-100.00,SSW,196,0.0,5.0,96,0.13,,,2.59,17.000000,,2013-07-18 20:11:00,
2013-07-18 16:43:00,71.0,70.0,-100.00,SSW,196,0.0,5.0,96,0.13,,,2.59,17.000000,,2013-07-18 20:43:00,
2013-07-18 16:52:00,71.0,70.0,-100.00,SSW,196,0.0,5.0,96,0.13,,,2.59,17.000000,,2013-07-18 20:52:00,
2013-07-18 17:01:00,71.0,70.0,-100.00,SSW,196,0.0,5.0,96,0.13,,,2.59,17.000000,,2013-07-18 21:01:00,
2013-07-18 17:11:00,71.0,70.0,-100.00,East,83,1.0,4.0,96,0.08,,,2.67,28.000000,,2013-07-18 21:11:00,
2013-07-18 17:32:00,71.0,70.0,-100.00,East,83,1.0,4.0,96,0.08,,,2.67,28.000000,,2013-07-18 21:32:00,
2013-07-18 17:43:00,71.0,70.0,-100.00,East,83,1.0,4.0,96,0.08,,,2.67,28.000000,,2013-07-18 21:43:00,
2013-07-18 17:52:00,71.0,70.0,-100.00,East,83,1.0,4.0,96,0.08,,,2.67,28.000000,,2013-07-18 21:52:00,
2013-07-18 18:01:00,71.0,70.0,-100.00,East,83,1.0,4.0,96,0.08,,,2.67,28.000000,,2013-07-18 22:01:00,
2013-07-18 18:11:00,71.0,70.0,-100.00,East,92,1.0,3.0,96,0.01,,,2.68,44.000000,,2013-07-18 22:11:00,
2013-07-18 18:43:00,71.0,70.0,-100.00,East,92,1.0,3.0,96,0.01,,,2.68,44.000000,,2013-07-18 22:43:00,
2013-07-18 18:53:00,71.0,70.0,-100.00,East,92,1.0,3.0,96,0.01,,,2.68,44.000000,,2013-07-18 22:53:00,
2013-07-18 19:02:00,71.0,70.0,-100.00,East,92,1.0,3.0,96,0.01,,,2.68,44.000000,,2013-07-18 23:02:00,
2013-07-18 19:11:00,72.0,70.0,-100.00,ENE,60,0.0,3.0,95,0.00,,,2.68,56.000000,,2013-07-18 23:11:00,
2013-07-18 19:42:00,72.0,70.0,-100.00,ENE,60,0.0,3.0,95,0.00,,,2.68,56.000000,,2013-07-18 23:42:00,
2013-07-18 19:52:00,72.0,70.0,-100.00,ENE,60,0.0,3.0,95,0.00,,,2.68,56.000000,,2013-07-18 23:52:00,
2013-07-18 20:01:00,72.0,70.0,-100.00,ENE,60,0.0,3.0,95,0.00,,,2.68,56.000000,,2013-07-19 00:01:00,
2013-07-18 20:11:00,72.0,70.0,-100.00,ESE,108,0.0,0.0,95,0.00,,,2.68,29.000000,,2013-07-19 00:11:00,
2013-07-18 20:43:00,72.0,70.0,-100.00,ESE,108,0.0,0.0,95,0.00,,,2.68,29.000000,,2013-07-19 00:43:00,
2013-07-18 20:52:00,72.0,70.0,-100.00,ESE,108,0.0,0.0,95,0.00,,,2.68,29.000000,,2013-07-19 00:52:00,
2013-07-18 21:01:00,72.0,70.0,-100.00,ESE,108,0.0,0.0,95,0.00,,,2.68,29.000000,,2013-07-19 01:01:00,
2013-07-18 21:11:00,72.0,71.0,-100.00,NE,52,1.0,2.0,96,0.00,,,2.68,1.000000,,2013-07-19 01:11:00,
2013-07-18 21:42:00,72.0,71.0,-100.00,NE,52,1.0,2.0,96,0.00,,,2.68,1.000000,,2013-07-19 01:42:00,
2013-07-18 21:52:00,72.0,71.0,-100.00,NE,52,1.0,2.0,96,0.00,,,2.68,1.000000,,2013-07-19 01:52:00,
2013-07-18 22:02:00,72.0,71.0,-100.00,NE,52,1.0,2.0,96,0.00,,,2.68,1.000000,,2013-07-19 02:02:00,
2013-07-18 22:11:00,71.0,70.0,-100.00,ENE,72,0.0,1.0,96,0.00,,,2.68,0.000000,,2013-07-19 02:11:00,
2013-07-18 22:52:00,71.0,70.0,-100.00,ENE,72,0.0,1.0,96,0.00,,,2.68,0.000000,,2013-07-19 02:52:00,
2013-07-18 23:01:00,71.0,70.0,-100.00,ENE,72,0.0,1.0,96,0.00,,,2.68,0.000000,,2013-07-19 03:01:00,
2013-07-18 23:11:00,71.0,70.0,-100.00,NNW,328,0.0,2.0,96,0.00,,,2.68,0.000000,,2013-07-19 03:11:00,
2013-07-18 23:43:00,71.0,70.0,-100.00,NNW,328,0.0,2.0,96,0.00,,,2.68,0.000000,,2013-07-19 03:43:00,
2013-07-18 23:52:00,71.0,70.0,-100.00,NNW,328,0.0,2.0,96,0.00,,,2.68,0.000000,,2013-07-19 03:52:00,